Find Molniya-3

NORAD ID: 21196 Int'l Des: 1991-022 Owner: UNKSR/MSVYAZ Country: SU operational
MEOELLIPTICALHEO_ELLIPTICALSEMI_SYNCMOLNIYA

Live Position

Loading 3D Globe...

About Molniya-3

Description loading...

Upcoming Passes

Passes for default location (London). Set your location on the main map for personalized predictions.

Altitude History

Loading altitude history...

Two-Line Element Set

1 21196U 91022A 26098.40311155 .00000662 00000-0 00000+0 0 9991
2 21196 64.7099 194.8964 6413727 254.8459 30.1934 2.03017650257923
Epoch: Apr 8, 2026 • Age: 142 hours

Current Status

Altitude 14911.9 km
Velocity 4.72 km/s
Sub-Earth Point 8.82°N, 120.44°W
Launch Date Mar 22, 1991
Age 35 years
Type other

Technical Details

Classification Payload
Mass 1750.00 kg
Dry Mass 1700.00 kg
Total Mass 1750.00 kg
Length 3.60 m
Diameter 1.60 m
Span 8.10 m
Shape Cyl + 6 Pan
Manufacturer NPOPM
Bus Type Molniya-3
Phase Status In Orbit
Owner/State UNKSR/MSVYAZ/SU

Most Searched